Location: A? ?a‘?’idah al Qibl?
(25.0715°N, 32.8226°E)
Time: 21:29:07
(UTC+00:00)

Daily predictions for brighter satellites

Satellite Brightness Start Highest point End
(mag) Time Altitude Azimuth Time Altitude Azimuth Time Altitude Azimuth
NOSS 3-4 (A) 4.5 16:55:11 10° NNW 17:02:22 47° ENE 17:10:14 10° SE
NOSS 3-4 (C) 4.5 16:55:18 10° NNW 17:02:27 47° ENE 17:10:16 10° SE
Cosmos 614 Rocket 4.0 16:57:39 10° NNW 17:02:51 83° ENE 17:08:00 10° SSE
SL-14 R/B 3.5 17:02:58 10° S 17:06:49 76° W 17:10:43 10° N
Cosmos 1378 Rocket 4.5 17:03:01 10° SSW 17:07:19 54° W 17:11:37 10° N
ATLAS 2A CENTAUR R/B 4.5 16:59:33 10° W 17:09:11 86° SSW 17:32:47 10° ESE
SWIFT 4.3 17:08:01 10° S 17:10:02 13° SSE 17:12:03 10° SE
Delta 202 4.2 17:05:40 10° WSW 17:10:41 37° S 17:15:37 10° ESE
USA 281 4.3 17:05:37 10° S 17:11:48 45° WSW 17:18:03 10° NW
CSL-04 Rocket 4.4 17:06:51 10° SE 17:11:51 37° ENE 17:16:54 10° N
deb Chang Zheng 4 4.3 17:08:11 10° SE 17:11:56 33° ENE 17:15:43 10° N
Cosmos 2369 Rocket 2.8 17:13:54 10° NNW 17:19:25 58° WSW 17:24:56 10° S
USA 186 1.9 17:21:29 10° SSE 17:24:12 43° ENE 17:27:04 10° N
Cosmos 1025 Rocket 3.7 17:20:54 10° SSE 17:24:42 33° E 17:28:32 10° NNE
GENESIS II 4.5 17:20:49 10° NNW 17:24:48 56° ENE 17:28:25 12° SE
Cosmos 724 4.4 17:19:34 10° SSW 17:25:24 81° WNW 17:31:12 10° NNE
GPS 2-17 Rocket1 3.5 17:23:04 10° WSW 17:27:10 41° S 17:30:35 14° ESE
Cosmos 1833 Rocket 3.9 17:24:18 10° SE 17:28:12 20° E 17:32:06 10° ENE
CZ-4C R/B 4.4 17:25:30 10° N 17:28:43 41° WNW 17:31:58 10° SSW
Cosmos 1238 Rocket 4.1 17:23:09 10° N 17:29:26 84° W 17:35:52 10° S
Cosmos 1452 Rocket 4.4 17:26:39 10° SSE 17:30:59 27° E 17:35:21 10° NE
Cosmos 1371 Rocket 4.5 17:26:07 10° SSW 17:31:15 65° WNW 17:36:28 10° N
Cosmos 1745 Rocket 4.2 17:27:19 10° N 17:33:18 51° E 17:39:20 10° SSE
CZ-4 R/B 3.0 17:31:00 10° SSW 17:34:49 35° W 17:38:37 10° NNW
Meteor 2-5 Rocket 3.7 17:33:55 10° S 17:39:21 63° E 17:44:49 10° NNE
COBE Rocket 3.7 17:34:58 10° SSE 17:39:35 83° E 17:44:14 10° N
Atlas Centaur 2 2.0 17:34:06 10° WNW 17:40:21 76° SSW 17:43:56 19° ESE
Yuri Rocket 3.4 17:40:37 10° WNW 17:44:48 56° N 17:48:20 14° E
Resurs 01 Rocket 3.0 17:46:10 18° E 17:47:44 22° ENE 17:51:06 10° NNE
IRS-1C Rocket 4.1 17:43:13 10° SSE 17:48:28 88° E 17:53:45 10° NNW
JB-3 4.4 17:45:48 10° N 17:49:36 74° WNW 17:53:22 10° SSW
Cosmos 1300 2.7 17:48:19 10° N 17:52:05 78° W 17:55:29 12° S
Mugunghwa Rocket 4.5 17:46:42 10° WSW 17:54:14 67° SSE 18:02:35 10° E
Cosmos 1455 Rocket 3.5 17:51:54 10° NNE 17:55:59 41° E 17:57:45 27° SE
Cosmos 1140 Rocket 3.4 17:51:28 10° NNW 17:56:39 87° ENE 18:00:31 18° SSE
Meteor 1-24 Rocket 3.5 17:51:35 10° S 17:56:51 81° E 18:02:14 10° N
Cosmos 1023 Rocket 4.4 17:51:51 10° NNW 17:57:00 88° W 18:00:56 17° SSE
Cosmos 407 Rocket 3.4 17:52:54 10° NNW 17:58:02 82° ENE 18:01:38 20° SSE
Okean O Rocket 4.4 17:57:11 10° SW 17:59:17 13° W 18:01:22 10° WNW
Okean 1 Rocket 4.2 17:55:48 10° NNW 18:00:00 44° W 18:04:10 10° SSW
Cosmos 1190 Rocket 4.2 17:55:03 10° N 18:00:12 52° ENE 18:02:53 26° SE
Lacrosse 5 3.7 17:57:59 10° N 18:01:32 19° NE 18:03:40 15° ENE
Cosmos 2082 Rocket 4.1 18:03:53 12° ENE 18:03:53 12° ENE 18:04:38 10° ENE
Okean-O 3.3 17:58:14 10° S 18:02:32 53° W 18:06:52 10° NNW
ATLAS 2A CENTAUR R/B 1.3 18:01:14 10° WNW 18:03:02 51° NNW 18:03:02 51° NNW
CZ-4B R/B 1.5 18:00:45 10° NNE 18:03:08 40° ENE 18:03:08 40° ENE
IGS 5A 3.5 18:01:13 18° S 18:04:15 78° W 18:08:23 10° NNW
H-2A R/B 2.5 18:05:28 20° S 18:07:57 66° WSW 18:11:44 10° NNW
ASTRO E2 2.5 18:05:43 10° WSW 18:09:38 77° SSE 18:11:19 32° ENE
USA 267 4.0 18:06:04 10° ENE 18:18:10 - S 18:11:07 27° ESE
GOES 2 Rocket 3.2 18:09:37 10° WSW 18:14:03 86° NNW 18:17:54 19° ENE
Cosmos 1536 Rocket 4.0 18:14:10 38° E 18:14:25 38° E 18:18:26 10° NNE
Spot 2 4.5 18:11:55 21° S 18:14:57 71° WSW 18:19:47 10° NNW
Meteor 2-10 Rocket 4.0 18:11:40 10° NNW 18:16:34 56° W 18:20:49 14° S
DELTA 2 R/B (1) 3.9 18:11:17 10° WNW 18:16:46 57° SW 18:19:03 33° SSE
Cosmos 2315 Rocket 4.3 18:10:40 10° SSW 18:16:58 70° W 18:23:15 10° N
MetOp-A 4.0 18:15:20 23° S 18:17:55 62° W 18:22:25 10° NNW
Cosmos 1271 Rocket 3.8 18:15:41 10° NNE 18:18:44 30° ENE 18:18:44 30° ENE
Cosmos 1709 Rocket 3.9 18:15:32 10° N 18:21:49 83° E 18:25:42 25° S
H-2A R/B 3.1 18:19:31 10° N 18:23:49 48° WNW 18:28:07 10° SSW
Ariane Rocket 3.4 18:26:13 40° ESE 18:27:06 44° ENE 18:31:56 10° N
Cosmos 1455 3.0 18:25:14 10° N 18:28:11 38° NE 18:28:11 38° NE
Cosmos 676 Rocket 4.1 18:23:44 10° N 18:28:55 57° ENE 18:30:00 47° ESE
GEOS 3 Rocket 4.2 18:36:11 37° ENE 18:37:02 39° NE 18:41:45 10° NNW
Tiangong 3.4 18:35:33 10° NNW 18:37:29 18° NNE 18:37:29 18° NNE
MetOp-B 4.2 18:42:36 53° E 18:43:09 56° ENE 18:48:23 10° N
Cosmos 1954 Rocket 3.9 18:38:24 10° NNW 18:43:39 88° WSW 18:44:37 60° S
Cosmos 1656 4.3 18:41:39 10° N 18:46:45 38° ENE 18:46:48 38° ENE
ATLAS 2AS CENTAUR R/B 2.7 18:40:18 10° NNW 18:47:03 62° ENE 18:48:29 50° ESE
Cosmos 1544 Rocket 3.4 18:44:10 10° N 18:48:23 85° NNW 18:48:23 85° NNW
Lacrosse 5 rocket 1.6 18:46:49 10° NW 18:50:20 62° W 18:50:20 62° W
Skynet4D Del rocket 3.9 18:45:28 10° W 18:51:05 58° SSW 18:51:43 55° S
Cosmos 1331 Rocket 4.1 18:49:36 36° SSW 18:51:47 77° WNW 18:57:05 10° NNE
SPOT 1/Viking Rocket 3.6 18:53:19 57° SSW 18:54:16 71° WSW 18:59:24 10° NNW
COSMOS 2406 3.1 18:54:08 62° S 18:55:06 78° ESE 19:00:52 10° NNE
Cosmos 1697 Rocket 4.3 18:54:21 10° NNE 18:57:48 20° NE 18:57:48 20° NE
Aurora 2 Rocket 4.1 18:57:31 10° W 19:07:43 86° S 19:10:32 47° E
SPOT 5 4.2 19:10:33 27° NNE 19:10:33 27° NNE 19:12:49 10° N
Cosmos 1833 Rocket 4.0 19:06:38 10° SW 19:11:45 36° WNW 19:16:53 10° N
Terra 3.5 19:17:34 24° NNE 19:17:34 24° NNE 19:19:54 10° N
ERS-1 Rocket 4.0 19:22:35 38° NNE 19:22:35 38° NNE 19:25:53 10° N
Milstar 3 4.2 19:11:42 10° WSW 19:21:52 84° SSE 19:42:55 10° ENE
Resurs 01 Rocket 3.6 19:23:44 21° WSW 19:24:01 22° W 19:27:26 10° NW
RESURS DK-1 4.5 19:23:46 10° N 19:25:28 23° N 19:25:28 23° N
Atlas Centaur 2 4.1 19:25:10 10° WSW 19:26:28 14° WSW 19:26:28 14° WSW
Cosmos 2184 Rocket 4.1 19:31:08 10° N 19:37:07 68° W 19:37:07 68° W
Lacrosse 5 3.3 19:39:46 10° NW 19:42:52 33° WNW 19:42:52 33° WNW
Cosmos 2082 Rocket 2.9 19:45:37 50° WNW 19:45:37 50° WNW 19:50:51 10° N
USA 267 3.7 19:48:07 10° NNE 19:54:28 56° NW 19:58:11 26° WSW
Cosmos 1980 Rocket 4.0 20:36:38 10° NNW 20:39:07 27° NNW 20:39:07 27° NNW
Cosmos 2219 Rocket 4.4 22:25:58 10° N 22:28:08 20° NNE 22:28:08 20° NNE
CENTAUR R/B 4.2 23:09:34 24° NNW 23:09:34 24° NNW 23:12:52 10° N
Cosmos 2333 Rocket 4.4 23:11:31 10° NNW 23:12:51 18° NNW 23:12:51 18° NNW
Cosmos 2227 Rocket 3.6 23:29:43 34° NNE 23:29:43 34° NNE 23:32:52 10° NNE
Cosmos 2263 Rocket 4.5 23:39:50 14° E 23:39:50 14° E 23:42:28 10° ENE
Resurs 1-4 Rocket 3.8 23:35:32 10° N 23:38:01 27° N 23:38:01 27° N
SL-16 R/B 2.9 23:49:37 60° NE 23:49:37 60° NE 23:55:06 10° N
CZ-2D R/B 3.8 23:44:18 10° N 23:46:40 26° NNW 23:46:40 26° NNW
COSMOS 2455 4.4 23:47:05 10° N 23:52:19 30° ENE 23:55:52 17° ESE
